owner,sensor,date,latitude,longitude,vertical_datum,direction_of_sea_water_velocity,sea_water_speed,upward_sea_water_velocity,qcFlag 
TABS,ioos:station:wmo:42045:1,1998-11-01T00:00:00Z,26.2168,-96.4998,2.0,100.0011234,68.00336021,-99999.0,'11111222,11111222,99999999' 
TABS,ioos:station:wmo:42045:1,1998-11-01T00:30:00Z,26.2168,-96.4998,2.0,103.0023162,50.00200896,-99999.0,'11111222,11111222,99999999' 
TABS,ioos:station:wmo:42045:1,1998-11-01T01:00:00Z,26.2168,-96.4998,2.0,102.001966,44.00186473,-99999.0,'11111222,11111222,99999999' 
TABS,ioos:station:wmo:42045:1,1998-11-01T04:00:00Z,26.2168,-96.4998,2.0,72.00512448,27.99963214,-99999.0,'11111222,11111222,99999999' 
TABS,ioos:station:wmo:42045:1,1998-11-01T04:30:00Z,26.2168,-96.4998,2.0,69.9993162,24.99765189,-99999.0,'11111222,11111222,99999999' 
TABS,ioos:station:wmo:42045:1,1998-11-01T05:00:00Z,26.2168,-96.4998,2.0,65.98834209,25.99997885,-99999.0,'11111222,11111222,99999999' 
TABS,ioos:station:wmo:42045:1,1998-11-01T05:30:00Z,26.2168,-96.4998,2.0,56.98688538,26.99914258,-99999.0,'11111222,11111222,99999999' 
TABS,ioos:station:wmo:42045:1,1998-11-01T06:00:00Z,26.2168,-96.4998,2.0,51.99228523,27.99752132,-99999.0,'11111222,11111222,99999999' 
TABS,ioos:station:wmo:42045:1,1998-11-01T06:30:00Z,26.2168,-96.4998,2.0,49.00452143,31.99691548,-99999.0,'11111222,11111222,99999999' 
TABS,ioos:station:wmo:42045:1,1998-11-01T07:00:00Z,26.2168,-96.4998,2.0,50.9973176,36.0049441,-99999.0,'11111222,11111222,99999999' 
TABS,ioos:station:wmo:42045:1,1998-11-01T07:30:00Z,26.2168,-96.4998,2.0,53.99942355,41.00071829,-99999.0,'11111222,11111222,99999999' 
TABS,ioos:station:wmo:42045:1,1998-11-01T08:00:00Z,26.2168,-96.4998,2.0,51.00317939,43.00162788,-99999.0,'11111222,11111222,99999999' 
TABS,ioos:station:wmo:42045:1,1998-11-01T08:30:00Z,26.2168,-96.4998,2.0,47.99963573,44.99828552,-99999.0,'11111222,11111222,99999999' 
TABS,ioos:station:wmo:42045:1,1998-11-01T09:00:00Z,26.2168,-96.4998,2.0,46.00004806,47.00147444,-99999.0,'11111222,11111222,99999999' 
TABS,ioos:station:wmo:42045:1,1998-11-01T09:30:00Z,26.2168,-96.4998,2.0,46.00459665,47.99871352,-99999.0,'11111222,11111222,99999999' 
TABS,ioos:station:wmo:42045:1,1998-11-01T10:00:00Z,26.2168,-96.4998,2.0,39.0073299,50.99947941,-99999.0,'11111222,11111222,99999999' 
TABS,ioos:station:wmo:42045:1,1998-11-01T10:30:00Z,26.2168,-96.4998,2.0,40.00029591,49.0051181,-99999.0,'11111222,11111222,99999999' 
TABS,ioos:station:wmo:42045:1,1998-11-01T11:00:00Z,26.2168,-96.4998,2.0,37.00189979,53.0041404,-99999.0,'11111222,11111222,99999999' 
TABS,ioos:station:wmo:42045:1,1998-11-01T11:30:00Z,26.2168,-96.4998,2.0,45.00010523,49.00249994,-99999.0,'11111222,11111222,99999999' 
TABS,ioos:station:wmo:42045:1,1998-11-02T17:00:00Z,26.2168,-96.4998,2.0,330.9970426,78.00205638,-99999.0,'11111222,11111222,99999999' 
TABS,ioos:station:wmo:42045:1,1998-11-02T17:30:00Z,26.2168,-96.4998,2.0,325.0070987,40.00145622,-99999.0,'11111222,11111222,99999999' 
TABS,ioos:station:wmo:42045:1,1998-11-02T18:00:00Z,26.2168,-96.4998,2.0,334.0054041,39.99629233,-99999.0,'11111222,11111222,99999999' 
TABS,ioos:station:wmo:42045:1,1998-11-02T18:30:00Z,26.2168,-96.4998,2.0,340.0024661,40.00188121,-99999.0,'11111222,11111222,99999999' 
TABS,ioos:station:wmo:42045:1,1998-11-02T19:00:00Z,26.2168,-96.4998,2.0,0.000210459,43.0,-99999.0,'11111222,11111222,99999999' 
TABS,ioos:station:wmo:42045:1,1998-11-02T19:30:00Z,26.2168,-96.4998,2.0,357.0007365,42.99890813,-99999.0,'11111222,11111222,99999999' 
TABS,ioos:station:wmo:42045:1,1998-11-02T20:00:00Z,26.2168,-96.4998,2.0,8.997533524,46.99828614,-99999.0,'11111222,11111222,99999999' 
TABS,ioos:station:wmo:42045:1,1998-11-02T20:30:00Z,26.2168,-96.4998,2.0,12.00217643,44.00186473,-99999.0,'11111222,11111222,99999999' 
TABS,ioos:station:wmo:42045:1,1998-11-03T18:30:00Z,26.2168,-96.4998,2.0,327.0069024,26.003494,-99999.0,'11111222,11111222,99999999' 
TABS,ioos:station:wmo:42045:1,1998-11-03T19:00:00Z,26.2168,-96.4998,2.0,333.999019,29.99606808,-99999.0,'11111222,11111222,99999999' 
TABS,ioos:station:wmo:42045:1,1998-11-03T19:30:00Z,26.2168,-96.4998,2.0,327.9972378,26.00174802,-99999.0,'11111222,11111222,99999999' 
TABS,ioos:station:wmo:42045:1,1998-11-03T20:00:00Z,26.2168,-96.4998,2.0,335.9896316,28.99931206,-99999.0,'11111222,11111222,99999999' 
TABS,ioos:station:wmo:42045:1,1998-11-03T20:30:00Z,26.2168,-96.4998,2.0,350.9926797,28.9976068,-99999.0,'11111222,11111222,99999999' 
TABS,ioos:station:wmo:42045:1,1998-11-03T21:00:00Z,26.2168,-96.4998,2.0,351.993055,29.00275849,-99999.0,'11111222,11111222,99999999' 
TABS,ioos:station:wmo:42045:1,1998-11-03T21:30:00Z,26.2168,-96.4998,2.0,2.994028084,26.99684611,-99999.0,'11111222,11111222,99999999' 
TABS,ioos:station:wmo:42045:1,1998-11-03T22:00:00Z,26.2168,-96.4998,2.0,19.00865722,12.00460745,-99999.0,'11111222,11111222,99999999' 
TABS,ioos:station:wmo:42045:1,1998-11-03T22:30:00Z,26.2168,-96.4998,2.0,18.9999545,34.00246168,-99999.0,'11111222,11111222,99999999' 
TABS,ioos:station:wmo:42045:1,1998-11-03T23:00:00Z,26.2168,-96.4998,2.0,25.00482758,33.99636745,-99999.0,'11111222,11111222,99999999' 
TABS,ioos:station:wmo:42045:1,1998-11-03T23:30:00Z,26.2168,-96.4998,2.0,30.00086808,34.99922999,-99999.0,'11111222,11111222,99999999' 
TABS,ioos:station:wmo:42045:1,1998-11-04T00:00:00Z,26.2168,-96.4998,2.0,33.99399087,34.00082646,-99999.0,'11111222,11111222,99999999' 
TABS,ioos:station:wmo:42045:1,1998-11-04T05:30:00Z,26.2168,-96.4998,2.0,70.00767913,36.99966757,-99999.0,'11111222,11111222,99999999' 
TABS,ioos:station:wmo:42045:1,1998-11-04T06:00:00Z,26.2168,-96.4998,2.0,71.9966817,34.00493641,-99999.0,'11111222,11111222,99999999' 
TABS,ioos:station:wmo:42045:1,1998-11-04T06:30:00Z,26.2168,-96.4998,2.0,75.99555189,35.00032143,-99999.0,'11111222,11111222,99999999' 
TABS,ioos:station:wmo:42045:1,1998-11-04T07:00:00Z,26.2168,-96.4998,2.0,86.99452091,32.99538453,-99999.0,'11111222,11111222,99999999' 
TABS,ioos:station:wmo:42045:1,1998-11-04T07:30:00Z,26.2168,-96.4998,2.0,90.0,32.0,-99999.0,'11111222,11111222,99999999' 
TABS,ioos:station:wmo:42045:1,1998-11-04T08:00:00Z,26.2168,-96.4998,2.0,93.99375231,27.99798921,-99999.0,'11111222,11111222,99999999' 
TABS,ioos:station:wmo:42045:1,1998-11-04T08:30:00Z,26.2168,-96.4998,2.0,112.0079073,33.99732342,-99999.0,'11111222,11111222,99999999' 
TABS,ioos:station:wmo:42045:1,1998-11-04T09:00:00Z,26.2168,-96.4998,2.0,112.0079073,33.99732342,-99999.0,'11111222,11111222,99999999' 
TABS,ioos:station:wmo:42045:1,1998-11-04T09:30:00Z,26.2168,-96.4998,2.0,121.00806,31.00009355,-99999.0,'11111222,11111222,99999999' 
TABS,ioos:station:wmo:42045:1,1998-11-04T10:00:00Z,26.2168,-96.4998,2.0,136.006354,30.99727246,-99999.0,'11111222,11111222,99999999' 
TABS,ioos:station:wmo:42045:1,1998-11-04T10:30:00Z,26.2168,-96.4998,2.0,141.0013129,27.99932142,-99999.0,'11111222,11111222,99999999' 
TABS,ioos:station:wmo:42045:1,1998-11-04T11:00:00Z,26.2168,-96.4998,2.0,135.9902395,27.00137034,-99999.0,'11111222,11111222,99999999' 
TABS,ioos:station:wmo:42045:1,1998-11-04T11:30:00Z,26.2168,-96.4998,2.0,147.9964402,31.00175801,-99999.0,'11111222,11111222,99999999' 
TABS,ioos:station:wmo:42045:1,1998-11-04T12:00:00Z,26.2168,-96.4998,2.0,172.0047503,33.00076514,-99999.0,'11111222,11111222,99999999' 
TABS,ioos:station:wmo:42045:1,1998-11-04T12:30:00Z,26.2168,-96.4998,2.0,161.9964712,34.00493641,-99999.0,'11111222,11111222,99999999' 
TABS,ioos:station:wmo:42045:1,1998-11-04T13:30:00Z,26.2168,-96.4998,2.0,158.9947347,33.00310591,-99999.0,'11111222,11111222,99999999' 
TABS,ioos:station:wmo:42045:1,1998-11-04T14:00:00Z,26.2168,-96.4998,2.0,158.9947347,33.00310591,-99999.0,'11111222,11111222,99999999' 
TABS,ioos:station:wmo:42045:1,1998-11-04T16:30:00Z,26.2168,-96.4998,2.0,198.9967618,48.99868774,-99999.0,'11111222,11111222,99999999' 
TABS,ioos:station:wmo:42045:1,1998-11-04T17:00:00Z,26.2168,-96.4998,2.0,189.9937331,45.00287213,-99999.0,'11111222,11111222,99999999' 
TABS,ioos:station:wmo:42045:1,1998-11-04T17:30:00Z,26.2168,-96.4998,2.0,196.0061407,40.00079249,-99999.0,'11111222,11111222,99999999' 
TABS,ioos:station:wmo:42045:1,1998-11-04T18:00:00Z,26.2168,-96.4998,2.0,207.0049498,39.00264863,-99999.0,'11111222,11111222,99999999' 
TABS,ioos:station:wmo:42045:1,1998-11-04T18:30:00Z,26.2168,-96.4998,2.0,233.9990026,41.00071829,-99999.0,'11111222,11111222,99999999' 
TABS,ioos:station:wmo:42045:1,1998-11-04T19:00:00Z,26.2168,-96.4998,2.0,218.9928129,40.00146247,-99999.0,'11111222,11111222,99999999' 
TABS,ioos:station:wmo:42045:1,1998-11-04T19:30:00Z,26.2168,-96.4998,2.0,215.9968327,38.9965242,-99999.0,'11111222,11111222,99999999' 
TABS,ioos:station:wmo:42045:1,1998-11-04T20:00:00Z,26.2168,-96.4998,2.0,237.9966065,26.00174802,-99999.0,'11111222,11111222,99999999' 
TABS,ioos:station:wmo:42045:1,1998-11-04T20:30:00Z,26.2168,-96.4998,2.0,234.0015906,23.00266289,-99999.0,'11111222,11111222,99999999' 
TABS,ioos:station:wmo:42045:1,1998-11-04T21:00:00Z,26.2168,-96.4998,2.0,220.0018767,24.99934799,-99999.0,'11111222,11111222,99999999' 
TABS,ioos:station:wmo:42045:1,1998-11-04T21:30:00Z,26.2168,-96.4998,2.0,207.0051977,31.99907811,-99999.0,'11111222,11111222,99999999' 
TABS,ioos:station:wmo:42045:1,1998-11-04T22:00:00Z,26.2168,-96.4998,2.0,189.9873242,26.00408045,-99999.0,'11111222,11111222,99999999' 
TABS,ioos:station:wmo:42045:1,1998-11-04T22:30:00Z,26.2168,-96.4998,2.0,285.0161752,20.99695216,-99999.0,'11111222,11111222,99999999' 
TABS,ioos:station:wmo:42045:1,1998-11-04T23:00:00Z,26.2168,-96.4998,2.0,204.9820122,17.00060293,-99999.0,'11111222,11111222,99999999' 
TABS,ioos:station:wmo:42045:1,1998-11-04T23:30:00Z,26.2168,-96.4998,2.0,195.000872,18.00354687,-99999.0,'11111222,11111222,99999999' 
TABS,ioos:station:wmo:42045:1,1998-11-05T00:00:00Z,26.2168,-96.4998,2.0,185.9954515,17.99845549,-99999.0,'11111222,11111222,99999999' 
TABS,ioos:station:wmo:42045:1,1998-11-05T00:30:00Z,26.2168,-96.4998,2.0,183.0095582,19.99758485,-99999.0,'11111222,11111222,99999999' 
TABS,ioos:station:wmo:42045:1,1998-11-05T01:00:00Z,26.2168,-96.4998,2.0,181.002361,16.00244981,-99999.0,'11111222,11111222,99999999' 
TABS,ioos:station:wmo:42045:1,1998-11-05T01:30:00Z,26.2168,-96.4998,2.0,174.995589,17.9986055,-99999.0,'11111222,11111222,99999999' 
TABS,ioos:station:wmo:42045:1,1998-11-05T05:00:00Z,26.2168,-96.4998,2.0,174.9963022,24.99524755,-99999.0,'11111222,11111222,99999999' 
TABS,ioos:station:wmo:42045:1,1998-11-05T05:30:00Z,26.2168,-96.4998,2.0,182.9936072,26.99684611,-99999.0,'11111222,11111222,99999999' 
TABS,ioos:station:wmo:42045:1,1998-11-05T06:00:00Z,26.2168,-96.4998,2.0,183.0088062,24.00309355,-99999.0,'11111222,11111222,99999999' 
TABS,ioos:station:wmo:42045:1,1998-11-05T06:30:00Z,26.2168,-96.4998,2.0,177.0092659,23.00132387,-99999.0,'11111222,11111222,99999999' 
TABS,ioos:station:wmo:42045:1,1998-11-05T07:00:00Z,26.2168,-96.4998,2.0,178.0079377,21.0026903,-99999.0,'11111222,11111222,99999999' 
TABS,ioos:station:wmo:42045:1,1998-11-05T07:30:00Z,26.2168,-96.4998,2.0,181.0091798,21.00325927,-99999.0,'11111222,11111222,99999999' 
TABS,ioos:station:wmo:42045:1,1998-11-05T08:00:00Z,26.2168,-96.4998,2.0,179.9997895,23.0,-99999.0,'11111222,11111222,99999999' 
TABS,ioos:station:wmo:42045:1,1998-11-05T08:30:00Z,26.2168,-96.4998,2.0,183.9862627,21.00081189,-99999.0,'11111222,11111222,99999999' 
TABS,ioos:station:wmo:42045:1,1998-11-05T09:00:00Z,26.2168,-96.4998,2.0,174.9963022,24.99524755,-99999.0,'11111222,11111222,99999999' 
TABS,ioos:station:wmo:42045:1,1998-11-05T09:30:00Z,26.2168,-96.4998,2.0,181.002361,24.00367472,-99999.0,'11111222,11111222,99999999' 
TABS,ioos:station:wmo:42045:1,1998-11-05T10:00:00Z,26.2168,-96.4998,2.0,176.9966439,25.00433962,-99999.0,'11111222,11111222,99999999' 
TABS,ioos:station:wmo:42045:1,1998-11-05T10:30:00Z,26.2168,-96.4998,2.0,181.0026395,35.99551361,-99999.0,'11111222,11111222,99999999' 
TABS,ioos:station:wmo:42045:1,1998-11-05T11:00:00Z,26.2168,-96.4998,2.0,179.9997895,33.0,-99999.0,'11111222,11111222,99999999' 
TABS,ioos:station:wmo:42045:1,1998-11-05T11:30:00Z,26.2168,-96.4998,2.0,171.9976456,38.00001316,-99999.0,'11111222,11111222,99999999' 
TABS,ioos:station:wmo:42045:1,1998-11-05T12:00:00Z,26.2168,-96.4998,2.0,183.999556,38.99497916,-99999.0,'11111222,11111222,99999999' 
TABS,ioos:station:wmo:42045:1,1998-11-05T12:30:00Z,26.2168,-96.4998,2.0,178.0012649,41.00494239,-99999.0,'11111222,11111222,99999999' 
TABS,ioos:station:wmo:42045:1,1998-11-05T13:00:00Z,26.2168,-96.4998,2.0,174.9971657,43.00381495,-99999.0,'11111222,11111222,99999999' 
TABS,ioos:station:wmo:42045:1,1998-11-05T13:30:00Z,26.2168,-96.4998,2.0,178.0005206,42.99617309,-99999.0,'11111222,11111222,99999999' 
TABS,ioos:station:wmo:42045:1,1998-11-05T16:30:00Z,26.2168,-96.4998,2.0,187.0004171,47.99783433,-99999.0,'11111222,11111222,99999999' 
TABS,ioos:station:wmo:42045:1,1998-11-05T17:00:00Z,26.2168,-96.4998,2.0,171.9950794,52.99636591,-99999.0,'11111222,11111222,99999999' 
TABS,ioos:station:wmo:42045:1,1998-11-05T17:30:00Z,26.2168,-96.4998,2.0,186.0014158,57.00243591,-99999.0,'11111222,11111222,99999999' 
TABS,ioos:station:wmo:42045:1,1998-11-05T18:00:00Z,26.2168,-96.4998,2.0,196.0005909,44.00485087,-99999.0,'11111222,11111222,99999999' 
TABS,ioos:station:wmo:42045:1,1998-11-05T18:30:00Z,26.2168,-96.4998,2.0,196.0005909,44.00485087,-99999.0,'11111222,11111222,99999999' 
TABS,ioos:station:wmo:42045:1,1998-11-05T19:00:00Z,26.2168,-96.4998,2.0,216.000366,41.00071829,-99999.0,'11111222,11111222,99999999' 
TABS,ioos:station:wmo:42045:1,1998-11-05T19:30:00Z,26.2168,-96.4998,2.0,193.0031605,43.99826019,-99999.0,'11111222,11111222,99999999' 
TABS,ioos:station:wmo:42045:1,1998-11-05T20:00:00Z,26.2168,-96.4998,2.0,201.9966661,37.00372549,-99999.0,'11111222,11111222,99999999' 
TABS,ioos:station:wmo:42045:1,1998-11-05T20:30:00Z,26.2168,-96.4998,2.0,200.9925938,35.0033427,-99999.0,'11111222,11111222,99999999' 
TABS,ioos:station:wmo:42045:1,1998-11-05T21:00:00Z,26.2168,-96.4998,2.0,231.995292,40.00184121,-99999.0,'11111222,11111222,99999999' 
TABS,ioos:station:wmo:42045:1,1998-11-05T21:30:00Z,26.2168,-96.4998,2.0,210.9962265,36.00098888,-99999.0,'11111222,11111222,99999999' 
TABS,ioos:station:wmo:42045:1,1998-11-05T22:00:00Z,26.2168,-96.4998,2.0,210.0019958,36.99745397,-99999.0,'11111222,11111222,99999999' 
TABS,ioos:station:wmo:42045:1,1998-11-05T22:30:00Z,26.2168,-96.4998,2.0,207.9968714,33.99885292,-99999.0,'11111222,11111222,99999999' 
TABS,ioos:station:wmo:42045:1,1998-11-05T23:00:00Z,26.2168,-96.4998,2.0,207.9968714,33.99885292,-99999.0,'11111222,11111222,99999999' 
TABS,ioos:station:wmo:42045:1,1998-11-05T23:30:00Z,26.2168,-96.4998,2.0,204.9978335,34.99860712,-99999.0,'11111222,11111222,99999999' 
TABS,ioos:station:wmo:42045:1,1998-11-06T00:00:00Z,26.2168,-96.4998,2.0,207.9950121,30.99708696,-99999.0,'11111222,11111222,99999999' 
TABS,ioos:station:wmo:42045:1,1998-11-06T00:30:00Z,26.2168,-96.4998,2.0,208.0073064,27.00237027,-99999.0,'11111222,11111222,99999999' 
TABS,ioos:station:wmo:42045:1,1998-11-06T01:00:00Z,26.2168,-96.4998,2.0,214.0076112,27.99892319,-99999.0,'11111222,11111222,99999999' 
TABS,ioos:station:wmo:42045:1,1998-11-06T05:00:00Z,26.2168,-96.4998,2.0,222.9985718,15.99744042,-99999.0,'11111222,11111222,99999999' 
TABS,ioos:station:wmo:42045:1,1998-11-06T05:30:00Z,26.2168,-96.4998,2.0,234.0003623,15.00573224,-99999.0,'11111222,11111222,99999999' 
TABS,ioos:station:wmo:42045:1,1998-11-06T06:00:00Z,26.2168,-96.4998,2.0,230.9924596,16.99982647,-99999.0,'11111222,11111222,99999999' 
TABS,ioos:station:wmo:42045:1,1998-11-06T06:30:00Z,26.2168,-96.4998,2.0,229.0006144,14.9989333,-99999.0,'11111222,11111222,99999999' 
TABS,ioos:station:wmo:42045:1,1998-11-06T07:00:00Z,26.2168,-96.4998,2.0,235.0024235,8.996804988,-99999.0,'11133222,11111222,99999999' 
TABS,ioos:station:wmo:42045:1,1998-11-06T07:30:00Z,26.2168,-96.4998,2.0,218.9977657,8.994203689,-99999.0,'11133222,11111222,99999999' 
TABS,ioos:station:wmo:42045:1,1998-11-06T08:00:00Z,26.2168,-96.4998,2.0,231.037837,7.999331222,-99999.0,'11133222,11111222,99999999' 
TABS,ioos:station:wmo:42045:1,1998-11-06T08:30:00Z,26.2168,-96.4998,2.0,242.9955515,7.003570518,-99999.0,'11133222,11111222,99999999' 
TABS,ioos:station:wmo:42045:1,1998-11-06T09:00:00Z,26.2168,-96.4998,2.0,231.000203,5.005457022,-99999.0,'11133222,11111222,99999999' 
TABS,ioos:station:wmo:42045:1,1998-11-06T09:30:00Z,26.2168,-96.4998,2.0,211.0223592,5.006046344,-99999.0,'11133222,11111222,99999999' 
TABS,ioos:station:wmo:42045:1,1998-11-06T10:00:00Z,26.2168,-96.4998,2.0,212.9858244,6.998071163,-99999.0,'11133222,11111222,99999999' 
TABS,ioos:station:wmo:42045:1,1998-11-06T10:30:00Z,26.2168,-96.4998,2.0,202.0676375,1.996246478,-99999.0,'11133222,11111222,99999999' 
TABS,ioos:station:wmo:42045:1,1998-11-06T11:00:00Z,26.2168,-96.4998,2.0,174.9741562,3.995359809,-99999.0,'11133222,11111222,99999999' 
TABS,ioos:station:wmo:42045:1,1998-11-06T11:30:00Z,26.2168,-96.4998,2.0,170.9924563,6.004040306,-99999.0,'11133222,11111222,99999999' 
TABS,ioos:station:wmo:42045:1,1998-11-06T12:00:00Z,26.2168,-96.4998,2.0,162.0306918,7.001514122,-99999.0,'11133222,11111222,99999999' 
TABS,ioos:station:wmo:42045:1,1998-11-06T12:30:00Z,26.2168,-96.4998,2.0,140.9523403,3.000166662,-99999.0,'11133222,11111222,99999999' 
TABS,ioos:station:wmo:42045:1,1998-11-06T13:00:00Z,26.2168,-96.4998,2.0,117.9746645,9.998249847,-99999.0,'11133222,11111222,99999999' 
TABS,ioos:station:wmo:42045:1,1998-11-06T13:30:00Z,26.2168,-96.4998,2.0,127.030303,4.998019608,-99999.0,'11133222,11111222,99999999' 
TABS,ioos:station:wmo:42045:1,1998-11-06T16:30:00Z,26.2168,-96.4998,2.0,151.0008802,8.003399278,-99999.0,'11133222,11111222,99999999' 
TABS,ioos:station:wmo:42045:1,1998-11-06T17:00:00Z,26.2168,-96.4998,2.0,151.0008802,8.003399278,-99999.0,'11133222,11111222,99999999' 
TABS,ioos:station:wmo:42045:1,1998-11-06T17:30:00Z,26.2168,-96.4998,2.0,168.030051,8.004030235,-99999.0,'11133222,11111222,99999999' 
TABS,ioos:station:wmo:42045:1,1998-11-06T18:00:00Z,26.2168,-96.4998,2.0,174.9981369,6.996642052,-99999.0,'11133222,11111222,99999999' 
TABS,ioos:station:wmo:42045:1,1998-11-06T18:30:00Z,26.2168,-96.4998,2.0,177.9952602,8.0048985,-99999.0,'11133222,11111222,99999999' 
TABS,ioos:station:wmo:42045:1,1998-11-06T19:00:00Z,26.2168,-96.4998,2.0,184.0139558,3.999812496,-99999.0,'11133222,11111222,99999999' 
TABS,ioos:station:wmo:42045:1,1998-11-06T19:30:00Z,26.2168,-96.4998,2.0,171.9507467,4.999249944,-99999.0,'11133222,11111222,99999999' 
TABS,ioos:station:wmo:42045:1,1998-11-06T20:00:00Z,26.2168,-96.4998,2.0,202.0317485,5.998008003,-99999.0,'11133222,11111222,99999999' 
TABS,ioos:station:wmo:42045:1,1998-11-06T20:30:00Z,26.2168,-96.4998,2.0,209.9813588,6.003332408,-99999.0,'11133222,11111222,99999999' 
TABS,ioos:station:wmo:42045:1,1998-11-06T21:00:00Z,26.2168,-96.4998,2.0,149.970458,1.998224212,-99999.0,'11133222,11111222,99999999' 
TABS,ioos:station:wmo:42045:1,1998-11-06T21:30:00Z,26.2168,-96.4998,2.0,189.9330666,3.9999625,-99999.0,'11133222,11111222,99999999' 
TABS,ioos:station:wmo:42045:1,1998-11-06T23:00:00Z,26.2168,-96.4998,2.0,195.0540709,3.003065101,-99999.0,'11133222,11111222,99999999' 
TABS,ioos:station:wmo:42045:1,1998-11-07T00:00:00Z,26.2168,-96.4998,2.0,99.04497546,6.997006503,-99999.0,'11133222,11111222,99999999' 
TABS,ioos:station:wmo:42045:1,1998-11-07T09:30:00Z,26.2168,-96.4998,2.0,99.04497546,6.997006503,-99999.0,'11133222,11111222,99999999' 
TABS,ioos:station:wmo:42045:1,1998-11-07T10:00:00Z,26.2168,-96.4998,2.0,99.04497546,6.997006503,-99999.0,'11133222,11111222,99999999' 
TABS,ioos:station:wmo:42045:1,1998-11-07T10:30:00Z,26.2168,-96.4998,2.0,118.038713,3.999412457,-99999.0,'11133222,11111222,99999999' 
TABS,ioos:station:wmo:42045:1,1998-11-07T11:00:00Z,26.2168,-96.4998,2.0,117.0040276,7.003570518,-99999.0,'11133222,11111222,99999999' 
TABS,ioos:station:wmo:42045:1,1998-11-07T11:30:00Z,26.2168,-96.4998,2.0,120.0088451,6.998114032,-99999.0,'11133222,11111222,99999999' 
TABS,ioos:station:wmo:42045:1,1998-11-07T12:00:00Z,26.2168,-96.4998,2.0,133.0187598,8.999777775,-99999.0,'11133222,11111222,99999999' 
TABS,ioos:station:wmo:42045:1,1998-11-07T12:30:00Z,26.2168,-96.4998,2.0,125.9956836,7.996930661,-99999.0,'11133222,11111222,99999999' 
TABS,ioos:station:wmo:42045:1,1998-11-07T13:00:00Z,26.2168,-96.4998,2.0,94.01507812,10.9969905,-99999.0,'11111222,11111222,99999999' 
TABS,ioos:station:wmo:42045:1,1998-11-07T16:00:00Z,26.2168,-96.4998,2.0,82.00435703,43.99771926,-99999.0,'11111222,11111222,99999999' 
TABS,ioos:station:wmo:42045:1,1998-11-07T16:30:00Z,26.2168,-96.4998,2.0,76.00485017,43.99597368,-99999.0,'11111222,11111222,99999999' 
TABS,ioos:station:wmo:42045:1,1998-11-07T17:00:00Z,26.2168,-96.4998,2.0,82.00317048,44.99756882,-99999.0,'11111222,11111222,99999999' 
TABS,ioos:station:wmo:42045:1,1998-11-07T17:30:00Z,26.2168,-96.4998,2.0,78.00148904,46.99674244,-99999.0,'11111222,11111222,99999999' 
TABS,ioos:station:wmo:42045:1,1998-11-07T18:00:00Z,26.2168,-96.4998,2.0,81.0050542,51.99948557,-99999.0,'11111222,11111222,99999999' 
TABS,ioos:station:wmo:42045:1,1998-11-07T18:30:00Z,26.2168,-96.4998,2.0,84.99843639,45.99513561,-99999.0,'11111222,11111222,99999999' 
TABS,ioos:station:wmo:42045:1,1998-11-07T19:00:00Z,26.2168,-96.4998,2.0,84.00006159,53.00033679,-99999.0,'11111222,11111222,99999999' 
TABS,ioos:station:wmo:42045:1,1998-11-07T19:30:00Z,26.2168,-96.4998,2.0,81.99434012,28.00290878,-99999.0,'11111222,11111222,99999999' 
TABS,ioos:station:wmo:42045:1,1998-11-07T20:00:00Z,26.2168,-96.4998,2.0,81.99339015,41.9994119,-99999.0,'11111222,11111222,99999999' 
TABS,ioos:station:wmo:42045:1,1998-11-07T20:30:00Z,26.2168,-96.4998,2.0,90.0,51.0,-99999.0,'11111222,11111222,99999999' 
TABS,ioos:station:wmo:42045:1,1998-11-07T21:00:00Z,26.2168,-96.4998,2.0,92.99495681,48.99692337,-99999.0,'11111222,11111222,99999999' 
TABS,ioos:station:wmo:42045:1,1998-11-07T21:30:00Z,26.2168,-96.4998,2.0,96.00162628,57.00243591,-99999.0,'11111222,11111222,99999999' 
TABS,ioos:station:wmo:42045:1,1998-11-07T22:00:00Z,26.2168,-96.4998,2.0,92.99772214,47.99567689,-99999.0,'11111222,11111222,99999999' 
TABS,ioos:station:wmo:42045:1,1998-11-07T22:30:00Z,26.2168,-96.4998,2.0,90.0,48.0,-99999.0,'11111222,11111222,99999999' 
TABS,ioos:station:wmo:42045:1,1998-11-07T23:00:00Z,26.2168,-96.4998,2.0,105.9943262,45.0020844,-99999.0,'11111222,11111222,99999999' 
TABS,ioos:station:wmo:42045:1,1998-11-07T23:30:00Z,26.2168,-96.4998,2.0,103.0033709,43.99826019,-99999.0,'11111222,11111222,99999999' 
TABS,ioos:station:wmo:42045:1,1998-11-08T00:00:00Z,26.2168,-96.4998,2.0,104.9989011,40.9967328,-99999.0,'11111222,11111222,99999999' 
TABS,ioos:station:wmo:42045:1,1998-11-08T05:00:00Z,26.2168,-96.4998,2.0,108.9949948,32.99678166,-99999.0,'11111222,11111222,99999999' 
TABS,ioos:station:wmo:42045:1,1998-11-08T06:00:00Z,26.2168,-96.4998,2.0,104.9959706,31.99978906,-99999.0,'11111222,11111222,99999999' 
TABS,ioos:station:wmo:42045:1,1998-11-08T06:30:00Z,26.2168,-96.4998,2.0,100.0024239,29.99592806,-99999.0,'11111222,11111222,99999999' 
TABS,ioos:station:wmo:42045:1,1998-11-08T07:00:00Z,26.2168,-96.4998,2.0,105.9994668,31.99953125,-99999.0,'11111222,11111222,99999999' 
TABS,ioos:station:wmo:42045:1,1998-11-08T07:30:00Z,26.2168,-96.4998,2.0,108.0023616,30.99752893,-99999.0,'11111222,11111222,99999999' 
TABS,ioos:station:wmo:42045:1,1998-11-08T08:00:00Z,26.2168,-96.4998,2.0,111.0050548,33.00310591,-99999.0,'11111222,11111222,99999999' 
TABS,ioos:station:wmo:42045:1,1998-11-08T08:30:00Z,26.2168,-96.4998,2.0,111.9970115,30.99644657,-99999.0,'11111222,11111222,99999999' 
TABS,ioos:station:wmo:42045:1,1998-11-08T09:00:00Z,26.2168,-96.4998,2.0,113.994163,33.00180147,-99999.0,'11111222,11111222,99999999' 
TABS,ioos:station:wmo:42045:1,1998-11-08T09:30:00Z,26.2168,-96.4998,2.0,114.0019071,28.00122319,-99999.0,'11111222,11111222,99999999' 
TABS,ioos:station:wmo:42045:1,1998-11-08T10:00:00Z,26.2168,-96.4998,2.0,113.9925942,27.003135,-99999.0,'11111222,11111222,99999999' 